www.pogodaiklimat.ru

Погода и климат >> Архив погоды >> Россия >> Камчатский край >> Остров Беринга


ПОГОДА на Острове Беринга

  • Прогноз погоды на Острове Беринга
  • Монитор погоды на Острове Беринга
  • Климат города

АРХИВ ПОГОДЫ на Острове Беринга

Время (UTC), дата Ветер
(напр.,м/с)
 
Видим.   Явления Облачность Т
(С)
Тd
(С)
f
(%)
Тe
(С)
Тes
(С)
Комфортность P
(гПа)
Po
(гПа)
Тmin
(С)
Tmax
(С)
R
(мм)
R24
(мм)
S
(см)
09 19.06 Ю 8-11
{11}
4000 м дымка 10/10 200 м
[St]
+5.1 +4.4 95 -1 -1 1015.4 1013.2 +5.9
12 19.06 Ю 8-11
{11}
4000 м дымка 10/10 100 м
[St]
+5.2 +4.8 97 -1 -1 1014.8 1012.6
15 19.06 Ю 8-11
{11}
2000 м дымка 10/10 100 м
[St]
+5.2 +4.9 98 -1 -1 1013.3 1011.1
18 19.06 Ю 7-10
{11}
2000 м дымка 10/10 100 м
[St]
+5.3 +5.1 99 -0 -0 1012.9 1010.7
21 19.06 Ю 8-11
{12}
2000 м дымка 10/10 100 м
[St]
+5.5 +5.4 99 -0 -0 1012.7 1010.5 +4.9
00 20.06 Ю 7
{11}
500 м туман ?/? +6.3 +6.2 99 +1 +1 1012.4 1010.2
03 20.06 Ю 7
{10}
4000 м в посл. час туман 10/10 100 м
[St]
+6.1 +5.8 98 +1 +1 1011.7 1009.5
06 20.06 Ю 7
{10}
4000 м дымка {туман} 10/10 100 м
[St]
+6.0 +5.6 97 +1 +1 1010.8 1008.7
09 20.06 Ю 7
{11}
4000 м дымка 10/10 100 м
[St]
+5.6 +5.2 97 0 0 1011.2 1009.0 +6.4
12 20.06 Ю 7
{10}
4000 м слабая морось 10/10 100 м
[St]
+5.7 +5.4 98 0 0 1011.3 1009.1
15 20.06 Ю 8-11
{11}
4000 м слабая морось 10/10 100 м
[St]
+5.5 +5.3 99 -0 -0 1011.0 1008.8
18 20.06 Ю 9-11
{12}
20 км {морось} 10/10 300 м
[St]
+5.7 +5.0 95 -0 -0 1011.2 1009.0
21 20.06 Ю 8-10
{11}
20 км 9/9 600 м
[Sc]
+5.9 +4.9 93 0 0 1011.6 1009.4 +5.4 0.1
00 21.06 Ю 7-10
{10}
20 км 9/9 300 м
[Sc]
+6.2 +5.5 95 +1 +1 1012.1 1009.9
03 21.06 Ю 6
{11}
20 км 9/9 600 м
[Cu Sc]
+6.5 +5.3 92 +2 +2 1012.4 1010.2
06 21.06 Ю 6 20 км 9/9 600 м
[Cu Sc]
+6.5 +4.9 90 +2 +2 1012.8 1010.6
09 21.06 Ю 5 20 км 9/9 600 м
[Cu Sc]
+6.1 +5.1 93 +2 +2 1013.4 1011.2 +7.2
12 21.06 ЮВ 2 20 км 9/9 600 м
[Sc]
+5.7 +4.5 92 +3 +3 1013.7 1011.5
15 21.06 В 6 20 км 10/10 600 м
[Sc]
+6.4 +5.7 95 +2 +2 1013.2 1011.0
18 21.06 В 6 20 км 10/10 600 м
[Sc]
+6.8 +6.2 96 +2 +2 1013.6 1011.4
21 21.06 В 5 20 км 9/9 600 м
[Cu Sc]
+9.6 +6.9 83 +6 +7 1014.1 1011.9 +5.3
00 22.06 В 5
{11}
20 км 8/4 600 м
[Sc Cc]
+10.3 +6.7 78 +7 +12 1014.5 1012.3
03 22.06 В 6-10
{11}
20 км 8/5 600 м
[Cu med, cong Ci]
+10.2 +6.2 76 +7 +9 1014.0 1011.9
06 22.06 СВ 7-13
{14}
20 км 10/10 600 м
[Sc]
+7.4 +5.5 88 +3 +3 1013.5 1011.3
09 22.06 СВ 7-11
{14}
20 км 10/10 300 м
[Sc]
+6.7 +5.3 91 +2 +2 1014.0 1011.8 +11.2
12 22.06 СВ 8-12
{13}
10 км слабый ливневой дождь 9/9 600 м
[Cb cap]
+6.4 +5.2 92 +1 +1 1013.0 1010.8
15 22.06 СВ 9-14
{15}
20 км {ливн. осадки} 10/10 600 м
[Sc]
+6.4 +5.2 92 +1 +1 1012.1 1009.9
18 22.06 СВ 9-14
{15}
4000 м слабый ливневой дождь 10/10 200 м
[Cb cap]
+6.5 +5.9 96 +1 +1 1011.5 1009.3
21 22.06 СВ 8-15
{16}
10 км слабый ливневой дождь 10/10 200 м
[Cb cap]
+6.9 +6.0 94 +2 +2 1011.2 1009.0 +6.3 2
00 23.06 СВ 9-15
{17}
10 км слабый ливневой дождь 10/10 200 м
[Cb cap]
+7.4 +6.3 93 +2 +2 1010.6 1008.4
03 23.06 СВ 8-13
{16}
20 км {ливн. осадки} 10/10 600 м
[Cb cap]
+7.6 +6.5 93 +3 +3 1010.1 1007.9
06 23.06 СВ 8-13
{15}
20 км {ливн. осадки} 10/10 300 м
[Sc]
+7.1 +6.1 93 +2 +2 1009.5 1007.3
09 23.06 СВ 7-13
{15}
4000 м дымка 10/10 200 м
[St]
+6.6 +6.2 97 +1 +1 1009.1 1006.9 +7.6 0.3
12 23.06 СВ 6-10
{14}
2000 м морось 10/10 100 м
[St]
+6.4 +6.1 98 +2 +2 1009.2 1007.1
15 23.06 СВ 6-10
{13}
2000 м слабая морось 10/10 100 м
[St]
+6.3 +6.1 99 +1 +1 1009.1 1006.9
18 23.06 СВ 5-10
{11}
4000 м дымка {морось} 10/10 200 м
[St]
+6.4 +6.1 98 +2 +2 1009.0 1006.9
21 23.06 СВ 6-10
{12}
20 км 10/10 600 м
[Sc]
+7.1 +6.0 93 +3 +3 1009.6 1007.4 +6.2 0.4
00 24.06 СВ 8-11
{12}
4000 м дымка 10/10 200 м
[St]
+7.0 +6.5 97 +2 +2 1009.4 1007.2
03 24.06 СВ 9-12
{12}
20 км 10/10 600 м
[Sc]
+7.5 +6.5 93 +2 +2 1009.1 1006.9
06 24.06 СВ 8-12
{14}
20 км 10/10 600 м
[Sc]
+7.5 +6.0 90 +2 +2 1008.3 1006.1
09 24.06 С 9-12
{13}
20 км 10/10 600 м
[Sc]
+6.5 +6.0 97 +1 +1 1008.7 1006.5 +7.9
12 24.06 С 8-10
{13}
4000 м дымка 10/10 300 м
[St]
+6.3 +5.8 97 +1 +1 1008.3 1006.1
15 24.06 С 8-10
{11}
4000 м дымка 10/10 300 м
[St]
+6.1 +5.9 99 0 0 1007.7 1005.5
18 24.06 С 9-11
{11}
20 км 10/10 300 м
[St]
+6.1 +5.7 97 0 0 1007.7 1005.5
21 24.06 С 8
{11}
4000 м дымка 10/10 200 м
[St]
+6.3 +5.7 96 +1 +1 1008.0 1005.8 +6.0
00 25.06 СЗ 7
{10}
20 км 10/10 600 м
[Sc]
+7.3 +5.9 91 +2 +2 1007.8 1005.6
03 25.06 СЗ 5 20 км 10/10 600 м
[Sc]
+7.6 +6.1 90 +4 +4 1007.6 1005.4
06 25.06 СЗ 6 20 км 10/10 600 м
[Sc]
+6.7 +5.6 93 +2 +2 1007.4 1005.2
09 25.06 СЗ 5 20 км 10/10 600 м
[Sc]
+6.4 +5.2 92 +2 +2 1008.0 1005.8 +7.8
12 25.06 СЗ 4 20 км 10/10 600 м
[Sc]
+5.8 +5.1 95 +2 +2 1008.0 1005.8
15 25.06 СЗ 3 20 км 10/10 600 м
[Sc]
+5.8 +4.9 94 +2 +2 1007.7 1005.5
18 25.06 С 3 20 км 10/10 600 м
[Sc]
+6.1 +4.7 91 +3 +3 1007.9 1005.7
21 25.06 СЗ 2 20 км 10/10 600 м
[Sc]
+6.7 +5.2 90 +4 +4 1008.1 1005.9 +5.8
00 26.06 З 4 20 км 8/5 600 м
[Sc Ci fib]
+7.8 +5.9 88 +4 +9 1008.0 1005.8
03 26.06 З 5 20 км 5/1 600 м
[Cu hum Cs]
+8.2 +6.3 88 +4 +10 1007.7 1005.5
06 26.06 ЮЗ 1 20 км 9/3 600 м
[Cu hum Cs]
+6.7 +5.6 93 +6 +9 1007.2 1005.0

 

Местоположение метеостанции Остров Беринга (Камчатский край, Россия): широта 55.20 долгота 165.90 высота над уровнем моря 18 м.

В архиве по умолчанию представлена погода на Острове Беринга за последнюю неделю. Архивные данные за месяц целиком и за предыдущие месяцы, начиная с января 2011 года, Вы можете получить, выбрав интересующий диапазон дат из раскрывающегося списка и нажав кнопку "Ввод!".

Внимание! Время в таблицах - всемирное. Для получения местного времени необходимо прибавить поправку, которая на Острове Беринга равна 12 ч.

Смотрите также архив погоды в соседних городах и на ближайших метеорологических станциях:

Погода на Мысе Африка (Камчатский край, Россия) (196 км)
Погода в Усть-Камчатске (Камчатский край, Россия) (230 км)
Погода на Мысе Озерном (Камчатский край, Россия) (319 км)
Погода в Ключах (Камчатский край, Россия) (343 км)
Погода в Козыревске (Камчатский край, Россия) (394 км)
Погода в Семячике (Камчатский край, Россия) (404 км)
Погода в Долиновке (Камчатский край, Россия) (438 км)
Погода в Эссо (Камчатский край, Россия) (460 км)
Погода в Мильково (Камчатский край, Россия) (476 км)
Погода в Оссоре (Камчатский край, Россия) (481 км)

Пояснения к столбцам:

Ветер - указаны скорость ветра в м/с - средняя за 10 мин, порывы в срок и между сроками (в фигурных скобках) и направление, откуда дует ветер: С - северный, СВ - северо-восточный, В - восточный, ЮВ - юго-восточный, Ю - южный, ЮЗ - юго-западный, З - западный, СЗ - северо-западный.
Видимость - горизонтальная дальность видимости в метрах или километрах. При видимости от 1 до 10 км при отсутствии осадков обычно наблюдается дымка, при ухудшении видимости до 1 км и менее - туман. В сухую погоду видимость может ухудшаться дымом, пылью или мглою.
Явления - указаны атмосферные явления, наблюдавшиеся в срок или в последний час перед сроком; фигурными скобками обозначены явления, наблюдавшиеся между сроками (за 1-3 часа до срока); квадратными скобками обозначены град или гололедные отложения с указанием их диаметра в мм.
Облачность - указаны через наклонную черту общая и нижняя облачность в баллах и высота нижней границы облаков в метрах; квадратными скобками обозначены формы облаков: Ci - перистые, Cs - перисто-слоистые, Cc - перисто-кучевые, Ac - высококучевые, As - высокослоистые, Sc - слоисто-кучевые, Ns - слоисто-дождевые, Cu - кучевые, Cb - кучево-дождевые. Подробнее классификацию облаков см. в Атласе облаков (PDF).
T - Температура воздуха - температура, измеренная на высоте 2 м над землей.
Td - Температура точки росы - температура, при понижении до которой содержащийся в воздухе водяной пар достигнет насыщения.
f - Относительная влажность воздуха - влажноcть воздуха, измеренная на высоте 2 м над землей.
Te - Эффективная температура - температура, которую ощущает одетый по сезону человек в тени. Характеристика душности погоды. При расчете учитывается влияние влажности воздуха и скорости ветра на теплоощущения человека.
Tes - Эффективная температура на солнце - температура, которую ощущает человек, с поправкой на солнечный нагрев. Характеристика знойности погоды. Зависит от высоты солнца над горизонтом, облачности и скорости ветра. Ночью, в пасмурную погоду, а также при ветре 12 м/с и более поправка равна нулю.
P - Атмосферное давление - приведенное к уровню моря атмосферное давление.
Po - Атмосферное давление - измеренное на уровне метеостанции атмосферное давление.
Tmin - Минимальная температура - минимум температуры воздуха на высоте 2 м над землей.
Tmax - Максимальная температура - максимум температуры воздуха на высоте 2 м над землей.
R - Количество осадков - Количество выпавших осадков за период времени, мм. При наведении курсора мыши на число - период времени, за который выпало указанное количество осадков.
R24 - Количество осадков - Количество выпавших осадков за 24 часа, мм.
S - Снежный покров - Высота снежного покрова, см. При наведении курсора мыши на число - состояние снежного покрова и степень покрытия местности в баллах.